Theta_e
296 296 296 297 299 299 300 302 304 304 303 302 303 304 304 303 303 303 306 309 310 309 308 307 304 305 301 301 302 300 298 297 292 293 291 290 289 287 288 288 291 288 289
296 297 296 297 298 298 299 300 301 301 301 300 301 301 300 299 300 300 301 304 308 308 307 306 303 303 301 301 300 298 297 297 294 287 288 288 287 287 286 286 288 288 287
297 296 295 295 296 297 298 300 300 299 299 299 298 296 296 297 298 300 301 302 304 308 307 304 303 300 299 299 298 297 295 296 293 288 286 288 287 286 285 285 285 286 288
295 294 294 294 295 298 300 300 298 298 297 296 296 295 296 296 298 300 303 304 304 306 305 304 303 300 299 298 297 296 295 294 292 290 287 286 285 285 285 282 281 284 284
294 293 292 293 296 297 297 297 296 296 295 295 294 294 294 295 296 295 295 295 297 297 299 301 300 300 299 299 298 296 295 293 292 289 287 285 284 284 283 284 281 281 282
291 290 292 292 293 294 294 293 294 293 293 292 291 290 289 292 292 293 293 293 293 293 293 295 297 297 296 295 295 295 295 292 290 288 286 285 285 285 285 284 281 279 277
291 289 289 290 289 290 291 291 290 288 289 288 287 286 286 288 291 292 292 292 292 292 292 293 294 296 296 295 292 292 291 292 292 291 287 288 286 287 286 284 283 281 280
291 290 289 289 288 287 287 287 286 286 285 285 285 285 285 286 289 289 288 287 287 288 290 292 292 293 293 292 291 290 291 291 290 291 291 290 289 288 287 286 284 282 281
288 287 288 287 286 287 287 286 285 285 285 285 285 285 285 284 287 287 286 285 285 285 286 287 288 287 290 291 288 287 287 286 289 290 290 290 289 289 289 286 282 282 278
286 286 287 287 287 287 286 285 285 285 285 285 285 285 286 284 287 287 287 285 284 284 285 285 287 287 288 288 287 286 285 285 286 286 287 288 288 288 289 287 285 283 277
286 287 287 288 287 287 285 285 285 285 284 284 284 284 284 285 285 288 287 285 285 284 284 284 285 287 288 287 287 286 283 282 283 283 281 281 282 283 283 285 286 285 275
286 285 285 286 285 285 285 285 285 284 283 282 282 283 284 284 286 287 287 286 286 284 283 284 285 287 286 285 284 283 282 281 282 281 280 279 278 278 276 276 275 275 273
285 285 284 285 285 285 285 285 284 284 282 282 282 281 282 284 284 286 286 285 284 283 284 285 285 285 284 283 283 282 280 281 280 279 278 273 272 276 276 276 277 278 278
285 285 285 285 285 285 285 285 285 284 282 282 281 281 282 282 283 283 283 283 283 284 284 283 282 281 281 281 280 279 279 279 278 277 276 276 277 276 276 276 275 276 276
285 285 285 285 285 284 284 285 285 285 284 282 282 282 282 281 283 284 283 281 282 281 281 281 280 280 279 278 278 278 278 279 278 278 277 276 276 276 276 277 277 276 273
284 285 284 285 285 284 284 283 285 286 286 286 285 284 284 285 285 285 285 284 283 282 280 278 278 278 277 277 277 277 278 278 278 279 278 277 276 276 275 276 276 275 273
284 284 284 284 284 284 284 283 281 284 285 285 285 285 286 285 286 285 284 283 282 280 277 277 277 277 277 277 277 278 276 277 279 279 279 278 277 277 276 276 277 277 277
283 283 284 285 284 284 284 284 284 282 281 282 284 285 285 286 286 284 284 282 279 279 278 277 277 277 277 277 277 277 277 276 278 279 278 278 277 277 277 277 278 277 277
284 283 284 284 284 284 284 283 283 283 282 282 282 283 284 285 285 284 283 279 277 277 278 277 277 277 276 277 274 275 274 272 273 276 279 279 278 278 276 277 277 276 277
285 284 284 284 284 284 282 281 281 281 280 280 281 281 283 282 279 278 278 278 278 277 277 278 277 276 276 276 275 275 275 275 274 274 275 276 275 276 276 276 277 276 277
284 284 283 284 283 283 281 281 280 280 279 279 279 280 280 279 278 277 277 277 277 275 274 276 275 275 275 274 276 276 276 277 277 277 277 277 277 277 278 278 277 277 277
283 283 284 283 283 283 282 281 281 280 279 278 277 278 277 277 276 276 275 274 272 274 273 275 276 277 276 277 277 277 277 278 278 278 278 278 278 277 276 276 275 275 275
283 283 283 283 283 283 282 280 279 279 279 279 278 275 274 273 273 275 278 277 275 275 273 275 276 276 276 277 278 278 277 277 278 279 277 277 276 276 275 274 273 273 273
282 283 283 282 282 282 281 280 280 279 279 279 279 277 273 277 279 279 279 278 277 275 275 274 273 275 276 277 276 277 277 277 277 278 277 276 276 275 275 273 272 272 273
281 278 280 281 281 281 281 281 281 280 279 277 276 277 279 278 279 279 278 275 275 277 277 275 275 274 273 274 273 275 275 274 273 275 275 274 273 273 272 271 269 269 268
282 278 279 280 277 279 281 281 280 280 279 278 278 277 277 279 279 278 276 275 277 276 276 274 273 272 271 272 273 273 273 273 274 274 275 273 271 270 270 268 266 265 266
Wind_Speed
6 6 7 7 12 14 14 14 12 13 13 15 17 19 20 21 20 20 24 25 24 23 23 23 25 21 14 13 14 13 9 11 15 11 9 15 15 15 11 8 9 7 8
7 7 8 8 14 15 15 15 14 13 16 17 18 18 17 21 22 24 26 26 28 27 28 25 25 17 19 17 15 14 11 11 17 19 15 13 15 13 14 13 8 7 8
6 7 6 9 17 15 15 15 12 15 18 17 17 16 20 21 22 24 27 29 30 28 26 27 25 21 19 16 17 14 12 12 15 15 12 10 11 12 13 10 9 8 7
6 6 10 14 15 14 15 13 14 16 17 17 15 17 18 20 22 26 29 28 28 24 23 24 23 23 22 23 19 18 16 16 15 13 14 12 12 12 12 13 9 7 8
9 10 12 15 16 15 15 13 16 15 15 13 14 16 16 16 11 7 5 5 8 10 12 16 18 21 29 25 16 18 19 15 14 13 12 11 11 13 14 9 9 9 5
8 11 14 13 14 14 15 16 15 14 11 13 10 8 8 6 10 2 9 7 11 13 13 13 15 23 23 25 24 24 20 17 16 13 9 14 16 14 10 13 11 10 7
11 11 11 13 12 15 15 15 13 10 11 9 5 5 6 6 5 6 10 9 11 12 14 15 14 13 21 17 21 21 18 23 25 18 18 16 15 17 14 15 14 11 5
13 14 14 15 16 16 15 12 7 9 8 5 4 4 3 5 11 15 14 10 10 9 11 15 15 15 15 16 15 14 14 13 13 11 16 15 12 16 16 12 13 8 4
13 15 14 15 16 16 15 9 7 6 4 3 3 3 2 4 10 13 13 10 11 10 8 10 12 12 20 23 15 14 12 7 8 13 15 20 23 22 17 12 11 11 4
14 14 15 15 15 15 9 6 4 3 3 3 4 5 5 5 10 13 11 8 11 9 10 10 17 16 21 22 15 16 14 10 12 11 10 15 19 18 23 15 13 13 5
13 14 14 14 13 10 6 3 2 3 3 4 6 6 7 6 7 14 13 8 9 9 9 8 8 20 20 20 16 11 11 9 11 12 10 8 7 7 5 7 10 11 5
12 13 14 12 9 6 3 2 3 3 4 5 6 6 6 6 10 13 15 15 14 10 9 8 10 19 20 19 13 22 20 12 8 9 9 8 8 7 5 6 6 6 4
12 13 13 12 8 4 3 2 2 3 2 4 4 5 5 5 6 16 17 18 16 10 8 14 20 19 18 15 22 22 13 8 8 9 8 3 3 6 8 8 8 9 8
11 11 10 9 7 4 2 2 2 2 3 3 4 4 4 5 5 6 7 10 15 11 14 11 12 12 12 12 11 8 6 5 7 8 7 7 6 4 6 3 5 5 5
9 9 9 5 5 4 3 2 2 3 2 3 3 4 5 5 3 9 9 7 7 10 11 8 7 8 7 6 6 6 6 6 7 7 8 7 7 6 4 3 5 3 3
7 7 6 4 4 3 3 3 5 7 10 12 9 6 5 11 13 14 16 18 19 14 7 7 6 6 6 6 6 6 5 6 6 7 7 7 7 6 6 3 5 3 5
7 7 6 5 4 4 3 3 2 5 10 13 13 12 11 12 14 16 18 20 17 10 7 6 6 6 6 5 5 5 3 4 7 7 8 6 6 6 7 6 5 4 5
6 7 4 4 3 3 2 3 2 3 4 4 8 8 14 15 16 18 20 15 6 6 5 6 6 5 5 5 5 4 4 4 5 6 6 6 6 7 6 6 5 5 5
3 4 4 3 3 4 4 4 4 4 5 5 5 7 9 15 16 16 10 4 5 4 4 5 4 4 4 4 4 4 4 3 3 4 5 6 6 6 4 4 4 5 4
3 4 4 3 3 4 4 4 4 5 5 5 5 6 6 8 5 4 4 4 4 3 3 4 3 4 4 4 4 4 4 4 3 3 3 4 4 4 4 4 3 4 3
2 2 3 2 2 3 3 5 5 5 5 5 5 6 8 7 5 4 4 3 3 3 3 3 3 4 4 4 4 4 4 4 4 4 4 3 3 4 3 3 3 3 3
2 2 3 3 2 5 6 6 6 5 5 6 5 6 9 5 4 4 4 4 3 3 3 4 3 4 4 4 4 5 5 5 5 5 4 4 4 4 3 3 3 2 3
2 2 3 3 4 6 6 6 6 6 5 6 5 4 4 3 3 4 5 3 3 3 2 4 4 4 3 3 4 4 5 4 4 5 4 3 3 3 4 3 3 2 2
2 3 3 3 4 5 5 6 6 8 7 5 5 4 3 4 5 4 4 4 4 3 3 3 3 4 4 4 3 3 3 3 3 4 6 4 4 6 5 4 3 3 3
3 3 3 3 5 5 6 6 6 6 5 5 4 4 4 4 5 6 4 4 4 4 4 4 4 5 6 7 6 5 5 5 4 5 4 5 6 6 4 4 3 3 3
3 3 3 4 4 3 5 6 6 5 5 5 5 5 5 5 5 5 4 5 5 5 6 5 6 9 8 6 7 8 8 8 7 7 5 5 5 4 4 4 4 3 4
Wind_Direction
284 279 273 272 290 290 285 282 268 276 278 272 275 274 270 266 263 257 252 250 238 221 211 202 202 192 187 182 171 177 160 149 139 145 128 147 137 134 143 152 154 138 144
251 270 270 283 300 288 281 278 278 278 279 279 278 273 268 267 264 257 253 247 241 227 206 202 193 184 185 179 164 163 145 150 144 138 142 149 143 145 148 151 156 161 129
269 288 287 292 303 284 279 274 274 285 285 281 274 272 274 273 271 263 253 242 236 226 203 194 184 172 176 165 151 149 140 135 141 145 136 149 143 148 143 141 157 154 145
313 298 292 296 289 288 291 289 278 283 282 280 277 280 281 283 277 266 255 242 225 211 189 181 175 175 171 157 154 152 140 139 145 132 148 146 143 157 147 150 159 143 160
308 301 299 301 301 300 296 287 290 285 280 283 288 288 288 277 264 294 25 78 116 129 162 162 158 166 156 158 151 153 142 139 145 136 146 151 151 157 166 168 142 147 163
295 294 300 295 295 296 298 294 293 287 287 294 289 289 292 292 299 258 110 116 119 124 125 134 138 146 135 137 139 143 141 139 147 141 154 164 164 163 158 162 144 160 177
297 302 303 301 294 302 300 297 296 293 301 298 301 305 316 327 78 78 112 125 118 122 129 127 133 141 131 125 121 129 144 151 153 152 165 170 163 171 155 164 165 170 164
320 322 319 316 307 306 299 297 289 301 295 296 299 302 333 359 72 83 77 84 87 95 125 134 136 139 129 127 125 128 136 140 145 157 164 160 161 164 163 157 154 138 72
328 323 320 313 308 305 300 307 303 301 317 314 325 327 64 38 81 90 87 84 92 86 89 103 113 114 125 123 117 124 124 110 123 128 134 145 149 157 156 144 150 160 141
330 327 318 313 307 302 301 313 310 337 339 1 28 20 68 82 93 90 93 101 97 94 85 95 117 125 126 134 140 141 134 132 130 119 119 127 142 160 164 166 159 170 132
330 324 314 312 309 306 308 308 10 5 34 51 57 48 49 57 83 97 101 100 107 102 102 101 108 123 120 120 119 125 124 118 118 116 101 101 108 132 136 144 163 158 133
331 317 317 320 309 304 298 22 46 37 62 63 73 67 60 57 79 86 91 94 102 102 99 99 102 104 106 101 94 118 118 107 108 117 124 129 128 124 102 98 99 98 80
329 324 325 326 313 324 326 54 51 63 56 69 77 81 72 63 72 84 84 82 83 90 91 104 105 104 103 103 121 121 118 118 125 129 133 99 102 117 110 93 85 92 79
320 322 320 325 333 340 353 25 33 84 81 82 90 87 83 77 79 77 76 84 86 91 100 94 89 85 87 102 108 93 93 106 123 127 115 102 111 103 116 110 105 118 102
325 317 314 322 347 349 5 24 73 27 114 124 100 102 112 97 75 97 99 97 96 97 95 86 89 91 92 94 95 98 108 114 113 118 120 123 123 120 109 96 119 129 106
331 321 324 335 352 357 7 33 52 113 112 110 101 100 76 108 117 109 110 115 116 109 92 103 103 108 111 120 124 120 116 118 126 128 126 129 134 136 133 120 130 115 127
332 329 338 343 358 3 2 21 50 62 100 112 116 116 115 126 121 119 121 124 115 102 101 111 114 116 125 128 123 134 118 109 123 130 139 135 131 135 141 151 152 145 131
338 324 337 341 360 4 9 46 36 76 95 93 103 122 126 126 124 127 127 119 98 83 105 119 125 127 132 131 124 114 108 104 118 126 126 137 146 146 154 165 168 161 162
348 325 330 337 39 40 32 35 43 73 78 82 89 94 110 121 121 124 113 89 108 103 117 119 122 126 119 119 114 110 111 108 107 117 139 147 153 148 150 143 167 161 143
337 2 1 351 26 53 62 52 52 53 59 74 97 106 107 116 88 81 77 88 89 85 97 110 100 99 103 110 111 114 110 109 110 106 112 111 108 111 125 130 140 151 159
334 357 32 358 26 51 50 69 61 63 65 63 65 73 85 99 96 84 84 71 88 89 87 92 96 99 99 101 99 98 102 100 98 100 99 95 107 110 108 129 147 152 166
6 15 15 23 43 80 81 78 81 76 77 84 75 79 89 89 92 88 77 74 64 72 73 94 90 106 114 117 116 114 121 125 132 128 125 119 114 117 121 116 122 131 159
39 46 43 32 58 79 74 76 78 80 72 77 81 61 36 56 68 82 99 89 79 76 68 87 90 84 79 91 96 115 127 131 123 119 123 124 126 131 124 114 120 105 121
51 58 67 61 67 73 80 84 90 94 104 96 94 90 82 77 100 91 95 92 83 73 68 74 81 103 102 91 89 101 106 111 117 137 139 133 131 128 125 119 130 123 121
57 74 72 71 85 90 91 85 87 90 91 91 91 106 109 95 108 111 100 89 88 81 77 80 74 89 94 102 103 103 99 116 121 125 118 118 130 131 124 120 127 109 101
87 69 78 78 67 79 99 97 89 90 97 101 96 90 91 91 91 94 87 86 86 81 81 73 82 88 83 78 87 88 82 82 90 93 98 105 108 104 111 117 125 111 117